Weather History for Newport Airport, OR

Change the Weather History Date:

Monday, February 7, 2011

  Actual Average Record
Temperature  
Mean Temperature 46 °F -  
Max Temperature 48 °F 50 °F 64 °F (2006)
Min Temperature 44 °F 38 °F 26 °F (2001)
Degree Days  
Heating Degree Days 19    
Moisture  
Dew Point 42 °F    
Average Humidity 84    
Maximum Humidity 100    
Minimum Humidity 66    
Precipitation  
Precipitation 0.05 in - - ()
Sea Level Pressure  
Sea Level Pressure 30.47 in    
Wind  
Wind Speed 11 mph (NNW)    
Max Wind Speed 26 mph    
Max Gust Speed 32 mph    
Visibility 7 miles    
Events Rain    
Averages and records for this station are not official NWS values.
T = Trace of Precipitation, MM = Missing Value Source: NWS Daily Summary

Daily Weather History Graph

Daily Weather History Graph

Search for Another Location

Airport:

Trip Planner

Search our weather history database for the weather conditions in past years. The results will help you decide how hot, cold, wet, or windy it might be!

Date:

Astronomy

Feb. 07, 2011 Rise Set
Actual Time 7:27 AM PST 5:33 PM PST
Civil Twilight 6:57 AM PST 6:04 PM PST
Nautical Twilight 6:22 AM PST 6:38 PM PST
Astronomical Twilight 5:48 AM PST 7:12 PM PST
Moon 8:58 AM PST (2/7) 10:36 PM PST (2/7)
Length of Visible Light 11h 06m
Length of Day
10h 05m
Waxing Crescent, 19% of the Moon is Illuminated
Feb 7
Waxing Crescent
Feb 10
First Quarter
Feb 18
Full
Feb 24
Last Quarter
Mar 4
New

Hourly Weather History & Observations

Time (PST) Temp. Windchill Dew Point Humidity Pressure Visibility Wind Dir Wind Speed Gust Speed Precip Events Conditions
12:11 AM 48.2 °F - 46.4 °F 93% 30.45 in 4.0 mi NW 9.2 mph - N/A   Overcast
12:31 AM 48.2 °F - 46.4 °F 93% 30.45 in 7.0 mi NNW 9.2 mph - N/A   Overcast
12:51 AM 48.2 °F - 46.4 °F 93% 30.45 in 7.0 mi NNW 10.4 mph - N/A   Overcast
1:12 AM 46.4 °F 41.5 °F 44.6 °F 93% 30.45 in 10.0 mi NW 10.4 mph - N/A   Overcast
1:51 AM 46.4 °F 42.9 °F 44.6 °F 93% 30.47 in 2.5 mi NNW 6.9 mph - N/A   Drizzle
2:14 AM 46.4 °F - 44.6 °F 93% 30.48 in 5.0 mi Calm Calm - N/A   Overcast
2:31 AM 46.4 °F - 44.6 °F 93% 30.48 in 3.0 mi Calm Calm - 0.01 in   Heavy Drizzle
2:51 AM 46.4 °F 45.2 °F 46.4 °F 100% 30.47 in 7.0 mi North 3.5 mph - 0.01 in   Overcast
3:11 AM 46.4 °F 41.5 °F 44.6 °F 93% 30.48 in 7.0 mi NW 10.4 mph 18.4 mph 0.01 in   Overcast
3:31 AM 46.4 °F 41.5 °F 44.6 °F 93% 30.47 in 7.0 mi NW 10.4 mph 16.1 mph 0.01 in   Overcast
3:51 AM 46.4 °F 43.5 °F 44.6 °F 93% 30.47 in 7.0 mi NNW 5.8 mph - 0.01 in   Overcast
4:14 AM 46.4 °F 41.5 °F 44.6 °F 93% 30.48 in 5.0 mi NW 10.4 mph - N/A Rain Light Rain
4:31 AM 48.2 °F - 44.6 °F 87% 30.49 in 7.0 mi NW 15.0 mph 20.7 mph N/A   Overcast
4:51 AM 46.4 °F 41.5 °F 44.6 °F 93% 30.48 in 5.0 mi NW 10.4 mph - N/A Rain Light Rain
5:11 AM 46.4 °F 41.5 °F 44.6 °F 93% 30.47 in 7.0 mi NW 10.4 mph - N/A Rain Light Rain
5:31 AM 46.4 °F 40.4 °F 42.8 °F 87% 30.47 in 10.0 mi NW 13.8 mph 19.6 mph N/A   Overcast
5:53 AM 46.4 °F 41.5 °F 42.8 °F 87% 30.46 in 10.0 mi NW 10.4 mph - N/A   Overcast
6:11 AM 46.4 °F 41.9 °F 42.8 °F 87% 30.46 in 10.0 mi NW 9.2 mph - N/A   Overcast
6:31 AM 48.2 °F - 42.8 °F 82% 30.48 in 10.0 mi NW 16.1 mph 21.9 mph N/A   Overcast
6:51 AM 46.4 °F 42.4 °F 42.8 °F 87% 30.49 in 7.0 mi NNW 8.1 mph - N/A   Overcast
7:11 AM 46.4 °F 41.5 °F 42.8 °F 87% 30.48 in 7.0 mi NW 10.4 mph - N/A   Overcast
7:31 AM 46.4 °F 41.9 °F 42.8 °F 87% 30.49 in 7.0 mi NNW 9.2 mph - N/A   Overcast
7:51 AM 46.4 °F 40.7 °F 41.0 °F 81% 30.49 in 7.0 mi NNW 12.7 mph 18.4 mph N/A   Overcast
8:11 AM 48.2 °F - 41.0 °F 76% 30.49 in 7.0 mi NW 10.4 mph - N/A   Mostly Cloudy
8:31 AM 48.2 °F - 39.2 °F 71% 30.49 in 10.0 mi NW 12.7 mph 19.6 mph N/A   Overcast
8:51 AM 48.2 °F - 39.2 °F 71% 30.49 in 7.0 mi NW 13.8 mph - N/A   Overcast
9:11 AM 46.4 °F 40.1 °F 39.2 °F 76% 30.50 in 5.0 mi NNW 15.0 mph 20.7 mph N/A Rain Light Rain
9:31 AM 48.2 °F - 39.2 °F 71% 30.50 in 10.0 mi NNW 12.7 mph 20.7 mph N/A   Overcast
9:51 AM 48.2 °F - 37.4 °F 66% 30.50 in 7.0 mi NNW 13.8 mph 20.7 mph N/A   Overcast
10:31 AM 44.6 °F 38.1 °F 39.2 °F 81% 30.52 in 5.0 mi NNW 13.8 mph 29.9 mph N/A Rain Light Rain
10:51 AM 48.2 °F - 42.8 °F 82% 30.51 in 7.0 mi NW 12.7 mph 19.6 mph N/A   Overcast
11:11 AM 46.4 °F 40.1 °F 39.2 °F 76% 30.52 in 7.0 mi NW 15.0 mph 20.7 mph N/A Rain Light Rain
11:31 AM 46.4 °F 39.0 °F 42.8 °F 87% 30.52 in 7.0 mi NNW 19.6 mph 26.5 mph N/A Rain Light Rain
11:51 AM 46.4 °F 41.9 °F 41.0 °F 81% 30.50 in 7.0 mi NNW 9.2 mph - N/A   Mostly Cloudy
12:11 PM 46.4 °F 40.7 °F 41.0 °F 81% 30.52 in 5.0 mi NW 12.7 mph 23.0 mph 0.01 in Rain Rain
12:31 PM 46.4 °F 38.7 °F 42.8 °F 87% 30.51 in 7.0 mi NW 20.7 mph 29.9 mph 0.01 in   Mostly Cloudy
12:51 PM 48.2 °F - 42.8 °F 82% 30.49 in 7.0 mi NNW 16.1 mph 23.0 mph 0.01 in   Mostly Cloudy
1:11 PM 48.2 °F - 42.8 °F 82% 30.49 in 7.0 mi NNW 17.3 mph 23.0 mph N/A   Mostly Cloudy
1:31 PM 44.6 °F 37.8 °F 41.0 °F 87% 30.49 in 7.0 mi NNW 15.0 mph - 0.01 in Rain Light Rain
1:51 PM 44.6 °F 37.8 °F 39.2 °F 81% 30.49 in 5.0 mi North 15.0 mph 26.5 mph 0.01 in Rain Light Rain
2:11 PM 46.4 °F 39.2 °F 42.8 °F 87% 30.47 in 5.0 mi NW 18.4 mph 29.9 mph N/A Rain Rain
2:31 PM 46.4 °F 39.5 °F 41.0 °F 81% 30.47 in 10.0 mi NNW 17.3 mph 24.2 mph N/A   Mostly Cloudy
2:51 PM 48.2 °F - 42.8 °F 82% 30.47 in 10.0 mi NNW 16.1 mph 23.0 mph N/A   Mostly Cloudy
3:12 PM 46.4 °F 40.7 °F 42.8 °F 87% 30.46 in 7.0 mi NNW 12.7 mph - N/A   Mostly Cloudy
3:31 PM 46.4 °F 39.0 °F 41.0 °F 81% 30.47 in 5.0 mi NNW 19.6 mph 25.3 mph N/A Rain Rain
3:51 PM 46.4 °F 40.4 °F 42.8 °F 87% 30.46 in 7.0 mi NNW 13.8 mph 19.6 mph N/A   Overcast
4:11 PM 44.6 °F 38.8 °F 41.0 °F 87% 30.46 in 7.0 mi North 11.5 mph 27.6 mph 0.01 in   Overcast
4:31 PM 44.6 °F 38.1 °F 41.0 °F 87% 30.46 in 7.0 mi NNW 13.8 mph 19.6 mph 0.01 in Rain Light Rain
4:51 PM 46.4 °F 39.0 °F 41.0 °F 81% 30.45 in 7.0 mi NNW 19.6 mph 23.0 mph 0.01 in   Mostly Cloudy
5:11 PM 46.4 °F 37.7 °F 39.2 °F 76% 30.44 in 7.0 mi NNW 26.5 mph 32.2 mph N/A   Scattered Clouds
5:31 PM 44.6 °F 37.8 °F 39.2 °F 81% 30.44 in 5.0 mi NNW 15.0 mph 27.6 mph N/A Rain Light Rain
5:51 PM 44.6 °F 37.4 °F 39.2 °F 81% 30.45 in 10.0 mi NNW 16.1 mph 26.5 mph N/A Rain Light Rain
6:11 PM 44.6 °F 37.2 °F 41.0 °F 87% 30.44 in 10.0 mi NNW 17.3 mph 23.0 mph N/A   Scattered Clouds
6:31 PM 44.6 °F 38.8 °F 42.8 °F 93% 30.45 in 7.0 mi NNW 11.5 mph 18.4 mph N/A   Mostly Cloudy
6:51 PM 44.6 °F 37.2 °F 41.0 °F 87% 30.45 in 10.0 mi NNW 17.3 mph 21.9 mph N/A   Mostly Cloudy
7:11 PM 44.6 °F 38.8 °F 39.2 °F 81% 30.44 in 7.0 mi NNW 11.5 mph 28.8 mph N/A Rain Rain
7:32 PM 44.6 °F 38.1 °F 39.2 °F 81% 30.44 in 7.0 mi NNW 13.8 mph 20.7 mph N/A   Mostly Cloudy
7:51 PM 44.6 °F 38.8 °F 39.2 °F 81% 30.44 in 10.0 mi NNW 11.5 mph 18.4 mph N/A   Mostly Cloudy
8:11 PM 46.4 °F 40.7 °F 41.0 °F 81% 30.44 in 10.0 mi NNW 12.7 mph - N/A   Mostly Cloudy
8:31 PM 46.4 °F 40.7 °F 39.2 °F 76% 30.44 in 7.0 mi NNW 12.7 mph 21.9 mph N/A   Mostly Cloudy
8:51 PM 44.6 °F 37.4 °F 39.2 °F 81% 30.44 in 7.0 mi NNW 16.1 mph 28.8 mph N/A Rain Light Rain
9:11 PM 44.6 °F 39.7 °F 39.2 °F 81% 30.43 in 7.0 mi NNW 9.2 mph 18.4 mph N/A   Mostly Cloudy
9:51 PM 44.6 °F 38.4 °F 37.4 °F 76% 30.43 in 7.0 mi NNW 12.7 mph 21.9 mph N/A   Scattered Clouds
10:11 PM 44.6 °F 36.9 °F 39.2 °F 81% 30.44 in 7.0 mi North 18.4 mph 26.5 mph N/A Rain Light Rain
10:31 PM 42.8 °F 36.6 °F 39.2 °F 87% 30.45 in 10.0 mi NNW 11.5 mph 16.1 mph N/A   Overcast
10:51 PM 44.6 °F 37.8 °F 37.4 °F 76% 30.45 in 7.0 mi NNW 15.0 mph 28.8 mph N/A Rain Light Rain
11:11 PM 44.6 °F 38.1 °F 39.2 °F 81% 30.45 in 7.0 mi NNW 13.8 mph - N/A   Drizzle
11:31 PM 44.6 °F 38.8 °F 37.4 °F 76% 30.45 in 7.0 mi NNW 11.5 mph 18.4 mph N/A   Overcast
11:51 PM 44.6 °F 37.8 °F 37.4 °F 76% 30.44 in 7.0 mi NNW 15.0 mph 23.0 mph N/A   Mostly Cloudy